Simultaneous Nadir Overpasses (SNOs) Predictions

Prediction of SNOs between GOES-15 and LANDSAT-8 Satellite Orbit:

Table of predicted SNOs for the next 14.0 days since TLE Epoch: 1/18/2025
Index Date Time (GOES-15) GOES-15 Lat,Lon LANDSAT-8 Lat,Lon Distance(km) Time Diff (sec)
1 01/18/2025 05:53:09 -0.00, 61.48 -0.77, 65.02 402.60 80
2 01/18/2025 18:14:32 -0.00, 61.48 -0.32, 59.83 187.13 80
3 01/20/2025 17:59:39 0.00, 61.50 0.30, 62.79 147.39 80
4 01/21/2025 06:20:54 -0.00, 61.52 0.81, 57.64 441.35 80
5 01/22/2025 17:47:26 0.01, 61.53 0.94, 65.75 481.34 80
6 01/23/2025 06:08:40 -0.01, 61.55 0.22, 60.61 107.34 80
7 01/25/2025 05:59:07 -0.01, 61.58 -0.46, 63.57 226.56 80
8 01/25/2025 18:20:30 0.01, 61.56 -0.67, 58.38 361.42 80
9 01/27/2025 18:08:16 0.00, 61.60 -0.02, 61.35 28.48 80
10 01/29/2025 17:53:21 -0.00, 61.65 0.59, 64.32 304.43 80
11 01/30/2025 06:14:35 0.00, 61.69 0.55, 59.18 286.62 80
